Location: Unspecified
(0.0000°N, 0.0000°E)
Time: 07:55:16
(UTC+00:00)

Vanguard 1 Rocket - Pass Details

Date: 29 November 2022
Orbit: 651 x 4224 km, 34.3° (Epoch: 04 February)

Event Time Altitude Azimuth Distance (km) Brightness Sun altitude
Rises 21:21:31 0° 225° (SW) 8,120 12.9 -48.2°
Reaches altitude 10° 21:30:15 10° 211° (SSW) 6,550 12.2 -50.0°
Maximum altitude 21:43:16 21° 169° (S) 4,463 10.9 -52.6°
Enters shadow 21:47:04 19° 149° (SSE) 4,183 10.7 -53.4°
